GW0309 Weather Reports


Display with metric or nautical units.
time (UTC)temp
F
wind
direction
speed
MPH
gust
MPH
rain 1hr
in
rain 24hr
in
rain mn
in
humidity
%
barometer
mb
20260510172131 0 45 4.0 6.0 0.00 0.00 0.00 1066.7
20260510171628 0 74 4.0 6.0 0.00 0.00 0.00 1066.8
20260510171126 0 73 2.0 3.0 0.00 0.00 0.00 1066.9
20260510170621 0 4 5.0 7.0 0.00 0.00 0.00 1066.6
20260510170118 0 24 5.0 7.0 0.00 0.00 0.00 1066.8
20260510165614 0 323 7.0 10.0 0.00 0.00 0.00 1066.9
20260510165110 0 67 3.0 5.0 0.00 0.00 0.00 1066.9
20260510164608 0 46 4.0 9.0 0.00 0.00 0.00 1066.9
20260510164104 0 40 3.0 6.0 0.00 0.00 0.00 1066.9
20260510163554 0 326 5.0 6.0 0.00 0.00 0.00 1066.9
20260510163050 0 54 5.0 9.0 0.00 0.00 0.00 1066.8
20260510162545 0 63 3.0 7.0 0.00 0.00 0.00 1066.6
20260510162042 0 59 3.0 10.0 0.00 0.00 0.00 1066.6
20260510161537 0 122 2.0 5.0 0.00 0.00 0.00 1066.7
20260510161034 0 104 3.0 7.0 0.00 0.00 0.00 1066.6
20260510160526 0 41 5.0 7.0 0.00 0.00 0.00 1066.5
20260510160026 0 85 3.0 5.0 0.00 0.00 0.00 1066.6
20260510155522 0 44 3.0 6.0 0.00 0.00 0.00 1066.2
20260510155019 0 2 4.0 6.0 0.00 0.00 0.00 1066.3
20260510154515 0 89 3.0 6.0 0.00 0.00 0.00 1066.3
20260510154014 0 68 3.0 7.0 0.00 0.00 0.00 1066.5
20260510153509 0 84 4.0 8.0 0.00 0.00 0.00 1066.6
20260510153007 0 47 5.0 7.0 0.00 0.00 0.00 1066.5
20260510152504 0 119 1.0 2.0 0.00 0.00 0.00 1066.8
20260510152000 0 47 5.0 7.0 0.00 0.00 0.00 1066.8
20260510151457 0 71 3.0 3.0 0.00 0.00 0.00 1066.7
20260510150954 0 306 5.0 8.0 0.00 0.00 0.00 1067.0
20260510150449 0 44 4.0 5.0 0.00 0.00 0.00 1066.8
20260510145945 0 68 6.0 8.0 0.00 0.00 0.00 1066.8
20260510145442 0 58 4.0 9.0 0.00 0.00 0.00 1067.0
20260510144938 0 45 2.0 5.0 0.00 0.00 0.00 1066.5
20260510144435 0 36 2.0 5.0 0.00 0.00 0.00 1066.7
20260510143931 0 307 4.0 6.0 0.00 0.00 0.00 1066.6
20260510143426 0 32 3.0 5.0 0.00 0.00 0.00 1066.7
20260510142924 0 49 3.0 7.0 0.00 0.00 0.00 1066.6
20260510142421 0 72 3.0 5.0 0.00 0.00 0.00 1066.4
20260510141917 0 59 3.0 5.0 0.00 0.00 0.00 1066.1
20260510141414 0 89 3.0 3.0 0.00 0.00 0.00 1066.2
20260510140912 0 57 3.0 3.0 0.00 0.00 0.00 1066.1
20260510140408 0 53 3.0 5.0 0.00 0.00 0.00 1065.7
20260510135907 0 46 3.0 5.0 0.00 0.00 0.00 1065.7
20260510135403 0 81 3.0 5.0 0.00 0.00 0.00 1065.6
20260510134900 0 78 1.0 3.0 0.00 0.00 0.00 1065.3
20260510134357 0 49 4.0 6.0 0.00 0.00 0.00 1065.5
20260510133853 0 83 2.0 6.0 0.00 0.00 0.00 1065.6
20260510133349 0 63 4.0 7.0 0.00 0.00 0.00 1065.6
20260510132845 0 42 5.0 6.0 0.00 0.00 0.00 1065.4
20260510132343 0 57 2.0 5.0 0.00 0.00 0.00 1065.5
20260510131840 0 56 3.0 3.0 0.00 0.00 0.00 1065.3
20260510131337 0 131 2.0 5.0 0.00 0.00 0.00 1065.1
20260510130834 0 34 3.0 5.0 0.00 0.00 0.00 1064.9
20260510130331 0 37 5.0 6.0 0.00 0.00 0.00 1064.9
20260510125827 0 73 2.0 3.0 0.00 0.00 0.00 1064.8
20260510125323 0 60 3.0 6.0 0.00 0.00 0.00 1064.6
20260510124820 0 50 4.0 6.0 0.00 0.00 0.00 1064.7
20260510124318 0 61 3.0 7.0 0.00 0.00 0.00 1064.7
20260510123813 0 56 3.0 5.0 0.00 0.00 0.00 1064.7
20260510123309 0 317 4.0 6.0 0.00 0.00 0.00 1064.7
20260510122805 0 70 2.0 6.0 0.00 0.00 0.00 1064.6
20260510122301 0 92 2.0 5.0 0.00 0.00 0.00 1064.4
20260510121758 0 80 2.0 3.0 0.00 0.00 0.00 1064.6
20260510121256 0 60 2.0 3.0 0.00 0.00 0.00 1064.7
20260510120753 0 91 1.0 3.0 0.00 0.00 0.00 1064.5
20260510120249 0 55 3.0 3.0 0.00 0.00 0.00 1064.0
20260510115745 0 70 2.0 5.0 0.00 0.00 0.00 1064.2
20260510115243 0 50 2.0 6.0 0.00 0.00 0.00 1063.8
20260510114738 0 57 2.0 3.0 0.00 0.00 0.00 1063.9
20260510114236 0 29 3.0 5.0 0.00 0.00 0.00 1063.7
20260510113731 0 74 2.0 3.0 0.00 0.00 0.00 1063.7
20260510113228 0 52 2.0 3.0 0.00 0.00 0.00 1063.6
20260510112724 0 106 1.0 3.0 0.00 0.00 0.00 1063.4
20260510112221 0 49 2.0 3.0 0.00 0.00 0.00 1063.0
20260510111717 0 63 3.0 6.0 0.00 0.00 0.00 1063.1
20260510111215 0 62 2.0 5.0 0.00 0.00 0.00 1063.5
20260510110714 0 35 3.0 3.0 0.00 0.00 0.00 1063.5
20260510110212 0 54 2.0 3.0 0.00 0.00 0.00 1063.6
20260510105712 0 42 2.0 5.0 0.00 0.00 0.00 1063.4
20260510105206 0 47 3.0 6.0 0.00 0.00 0.00 1063.4
20260510104703 0 336 3.0 5.0 0.00 0.00 0.00 1063.4
20260510104200 0 33 3.0 5.0 0.00 0.00 0.00 1063.0
20260510103657 0 65 2.0 3.0 0.00 0.00 0.00 1062.7
20260510103154 0 92 2.0 3.0 0.00 0.00 0.00 1062.9
20260510102654 0 52 3.0 3.0 0.00 0.00 0.00 1062.7
20260510102150 0 77 1.0 2.0 0.00 0.00 0.00 1062.5
20260510101648 0 84 1.0 2.0 0.00 0.00 0.00 1062.6
20260510101146 0 95 0.0 1.0 0.00 0.00 0.00 1062.6
20260510100641 0 114 1.0 1.0 0.00 0.00 0.00 1062.6
20260510100139 0 113 1.0 2.0 0.00 0.00 0.00 1062.3
20260510095635 0 90 2.0 2.0 0.00 0.00 0.00 1062.2
20260510095131 0 112 1.0 2.0 0.00 0.00 0.00 1062.1
20260510094629 0 71 1.0 2.0 0.00 0.00 0.00 1062.2
20260510094126 0 87 1.0 5.0 0.00 0.00 0.00 1061.9
20260510093622 0 63 2.0 2.0 0.00 0.00 0.00 1062.1
20260510093119 0 82 2.0 2.0 0.00 0.00 0.00 1062.0
20260510092615 0 95 0.0 2.0 0.00 0.00 0.00 1062.0
20260510092115 0 107 1.0 2.0 0.00 0.00 0.00 1062.0
20260510091612 0 74 1.0 2.0 0.00 0.00 0.00 1062.1
20260510091108 0 89 1.0 2.0 0.00 0.00 0.00 1061.9
20260510090605 0 116 0.0 2.0 0.00 0.00 0.00 1061.9
20260510090101 0 67 2.0 3.0 0.00 0.00 0.00 1062.0
20260510085556 0 90 2.0 3.0 0.00 0.00 0.00 1061.9
20260510085052 0 96 1.0 2.0 0.00 0.00 0.00 1061.6
20260510084549 0 80 1.0 2.0 0.00 0.00 0.00 1061.6
20260510084046 0 99 1.0 1.0 0.00 0.00 0.00 1061.5
20260510083542 0 110 2.0 2.0 0.00 0.00 0.00 1061.4
20260510083038 0 124 0.0 2.0 0.00 0.00 0.00 1061.4
20260510082535 0 119 0.0 0.0 0.00 0.00 0.00 1061.5
20260510082031 0 97 1.0 2.0 0.00 0.00 0.00 1061.4
20260510081526 0 99 1.0 1.0 0.00 0.00 0.00 1061.2
20260510081022 0 119 0.0 1.0 0.00 0.00 0.00 1061.3
20260510080521 0 115 0.0 1.0 0.00 0.00 0.00 1061.3
20260510080018 0 96 1.0 1.0 0.00 0.00 0.00 1061.2
20260510075515 0 85 1.0 2.0 0.00 0.00 0.00 1061.1
20260510075012 0 71 1.0 2.0 0.00 0.00 0.00 1061.0
20260510074510 0 66 1.0 2.0 0.00 0.00 0.00 1061.0
20260510074005 0 107 0.0 1.0 0.00 0.00 0.00 1061.2
20260510073501 0 116 0.0 0.0 0.00 0.00 0.00 1061.1
20260510072958 0 74 1.0 1.0 0.00 0.00 0.00 1060.9
20260510072455 0 68 2.0 2.0 0.00 0.00 0.00 1061.1
20260510071950 0 46 2.0 6.0 0.00 0.00 0.00 1061.4
20260510071447 0 100 0.0 1.0 0.00 0.00 0.00 1061.2
20260510070945 0 111 0.0 1.0 0.00 0.00 0.00 1061.1
20260510070442 0 124 0.0 1.0 0.00 0.00 0.00 1061.3
20260510065938 0 123 0.0 1.0 0.00 0.00 0.00 1060.9
20260510065435 0 124 0.0 0.0 0.00 0.00 0.00 1060.9
20260510064931 0 129 0.0 0.0 0.00 0.00 0.00 1060.8
20260510064428 0 117 0.0 0.0 0.00 0.00 0.00 1060.8
20260510063925 0 118 0.0 1.0 0.00 0.00 0.00 1060.9
20260510063421 0 127 0.0 0.0 0.00 0.00 0.00 1060.9
20260510062919 0 128 0.0 0.0 0.00 0.00 0.00 1060.6
20260510062414 0 127 0.0 0.0 0.00 0.00 0.00 1060.9
20260510061910 0 128 0.0 0.0 0.00 0.00 0.00 1060.6
20260510061407 0 129 0.0 1.0 0.00 0.00 0.00 1061.0
20260510060902 0 136 0.0 1.0 0.00 0.00 0.00 1060.8
20260510060359 0 139 1.0 2.0 0.00 0.00 0.00 1060.7
20260510055850 0 150 2.0 2.0 0.00 0.00 0.00 1060.9
20260510055349 0 137 1.0 1.0 0.00 0.00 0.00 1061.0
20260510054843 0 155 2.0 3.0 0.00 0.00 0.00 1060.9
20260510054339 0 164 2.0 3.0 0.00 0.00 0.00 1061.0
20260510053833 0 149 2.0 2.0 0.00 0.00 0.00 1061.0
20260510053329 0 147 1.0 1.0 0.00 0.00 0.00 1060.6
20260510052826 0 133 0.0 0.0 0.00 0.00 0.00 1061.1
20260510052322 0 121 0.0 0.0 0.00 0.00 0.00 1060.7
20260510051818 0 121 0.0 0.0 0.00 0.00 0.00 1060.8
20260510051315 0 127 0.0 1.0 0.00 0.00 0.00 1060.9
20260510050811 0 133 0.0 0.0 0.00 0.00 0.00 1060.7
20260510050303 0 121 0.0 1.0 0.00 0.00 0.00 1060.8
20260510045800 0 135 0.0 0.0 0.00 0.01 0.01 1060.4
20260510045256 0 129 0.0 0.0 0.00 0.01 0.01 1060.3
20260510044754 0 127 0.0 0.0 0.00 0.01 0.01 1060.2
20260510044250 0 124 0.0 0.0 0.00 0.01 0.01 1060.2
20260510043746 0 119 0.0 0.0 0.00 0.01 0.01 1060.3
20260510043242 0 99 1.0 2.0 0.00 0.01 0.01 1060.3
20260510042740 0 96 1.0 2.0 0.00 0.01 0.01 1060.3
20260510042235 0 109 1.0 2.0 0.00 0.01 0.01 1060.1
20260510041732 0 326 3.0 6.0 0.00 0.01 0.01 1060.0
20260510041230 0 68 3.0 7.0 0.00 0.01 0.01 1060.0
20260510040726 0 358 5.0 9.0 0.00 0.01 0.01 1059.7
20260510040223 0 131 0.0 0.0 0.00 0.01 0.01 1059.5
20260510035719 0 128 0.0 0.0 0.00 0.01 0.01 1059.2
20260510035215 0 134 0.0 1.0 0.00 0.01 0.01 1059.2
20260510034711 0 131 0.0 1.0 0.00 0.01 0.01 1059.4
20260510034209 0 132 0.0 1.0 0.00 0.01 0.01 1059.3
20260510033659 0 134 0.0 1.0 0.00 0.01 0.01 1059.1
20260510033157 0 138 1.0 1.0 0.00 0.01 0.01 1059.1
20260510032653 0 130 0.0 0.0 0.00 0.01 0.01 1059.2
20260510032148 0 134 0.0 0.0 0.00 0.01 0.01 1059.0
20260510031643 0 133 0.0 1.0 0.00 0.01 0.01 1059.1
20260510031140 0 139 0.0 1.0 0.00 0.01 0.01 1059.0
20260510030634 0 132 0.0 0.0 0.00 0.01 0.01 1059.1
20260510030132 0 137 0.0 1.0 0.00 0.01 0.01 1059.1
20260510025629 0 132 0.0 0.0 0.00 0.01 0.01 1059.0
20260510025126 0 132 0.0 0.0 0.00 0.01 0.01 1058.9
20260510024623 0 137 1.0 1.0 0.00 0.01 0.01 1058.9
20260510024119 0 132 0.0 0.0 0.00 0.01 0.01 1059.0
20260510023615 0 134 0.0 0.0 0.00 0.01 0.01 1058.7
20260510023113 0 134 0.0 0.0 0.00 0.01 0.01 1058.3
20260510022613 0 134 0.0 1.0 0.00 0.01 0.01 1058.5
20260510022108 0 129 0.0 0.0 0.00 0.01 0.01 1058.4
20260510021604 0 142 1.0 2.0 0.00 0.01 0.01 1058.1
20260510021102 0 143 1.0 2.0 0.00 0.01 0.01 1058.2
20260510020555 0 143 0.0 0.0 0.00 0.01 0.01 1058.1
20260510020051 0 129 0.0 0.0 0.00 0.01 0.01 1058.0
20260510015548 0 128 0.0 0.0 0.00 0.01 0.01 1058.0
20260510015044 0 129 0.0 0.0 0.00 0.01 0.01 1057.9
20260510014540 0 133 0.0 0.0 0.00 0.01 0.01 1057.9
20260510014037 0 129 0.0 0.0 0.00 0.01 0.01 1057.7
20260510013532 0 131 0.0 0.0 0.00 0.01 0.01 1057.4
20260510013027 0 132 0.0 0.0 0.00 0.01 0.01 1057.3
20260510012522 0 128 0.0 0.0 0.00 0.01 0.01 1057.2
20260510012019 0 129 0.0 0.0 0.00 0.01 0.01 1057.5
20260510011518 0 130 0.0 0.0 0.00 0.01 0.01 1057.2
20260510011014 0 128 0.0 0.0 0.00 0.01 0.01 1057.3
20260510010511 0 129 0.0 0.0 0.00 0.01 0.01 1057.1
20260510010008 0 128 0.0 0.0 0.00 0.01 0.01 1057.2
20260510005504 0 131 0.0 0.0 0.00 0.01 0.01 1057.3
20260510005002 0 128 0.0 0.0 0.00 0.01 0.01 1057.3
20260510004459 0 129 0.0 0.0 0.00 0.01 0.01 1057.0
20260510003957 0 128 0.0 0.0 0.00 0.01 0.01 1057.0
20260510003453 0 128 0.0 0.0 0.00 0.01 0.01 1057.0
20260510002948 0 129 0.0 0.0 0.00 0.01 0.01 1057.2
20260510002444 0 128 0.0 0.0 0.00 0.01 0.01 1057.0
20260510001941 0 128 0.0 0.0 0.00 0.01 0.01 1056.9
20260510001438 0 131 0.0 0.0 0.00 0.01 0.01 1057.2
20260510000936 0 127 0.0 0.0 0.00 0.01 0.01 1056.9
20260510000433 0 129 0.0 0.0 0.00 0.01 0.01 1057.2
20260509235929 0 128 0.0 0.0 0.00 0.01 0.01 1056.9
20260509235426 0 136 0.0 0.0 0.00 0.01 0.01 1057.1
20260509234922 0 135 0.0 1.0 0.00 0.01 0.01 1057.0
20260509234419 0 129 0.0 0.0 0.00 0.01 0.01 1056.8
20260509233917 0 131 0.0 2.0 0.00 0.01 0.01 1057.0
20260509233414 0 270 4.0 5.0 0.00 0.01 0.01 1056.7
20260509232910 0 122 0.0 1.0 0.00 0.01 0.01 1056.8
20260509232408 0 131 1.0 1.0 0.00 0.01 0.01 1056.9
20260509231903 0 128 0.0 3.0 0.00 0.01 0.01 1056.8
20260509231400 0 155 1.0 5.0 0.00 0.01 0.01 1056.7
20260509230859 0 168 2.0 2.0 0.00 0.01 0.01 1057.1
20260509230355 0 186 3.0 5.0 0.00 0.01 0.01 1056.7
20260509225851 0 140 0.0 2.0 0.00 0.01 0.01 1057.1
20260509225348 0 174 2.0 5.0 0.00 0.01 0.01 1056.8
20260509224843 0 128 1.0 6.0 0.00 0.01 0.01 1056.6
20260509224340 0 123 1.0 7.0 0.00 0.01 0.01 1056.8
20260509223837 0 242 3.0 6.0 0.00 0.01 0.01 1056.9
20260509223333 0 268 2.0 3.0 0.00 0.01 0.01 1056.8
20260509222830 0 135 0.0 3.0 0.00 0.01 0.01 1056.9
20260509222326 0 272 3.0 3.0 0.00 0.01 0.01 1057.0
20260509221821 0 92 1.0 3.0 0.00 0.01 0.01 1056.8
20260509221319 0 299 3.0 6.0 0.00 0.01 0.01 1057.1
20260509220814 0 193 1.0 3.0 0.00 0.01 0.01 1056.7
20260509220310 0 161 2.0 3.0 0.00 0.01 0.01 1056.8
20260509215806 0 335 1.0 6.0 0.00 0.01 0.01 1056.8
20260509215305 0 245 2.0 3.0 0.00 0.01 0.01 1056.9
20260509214759 0 175 1.0 6.0 0.00 0.01 0.01 1056.8
20260509214257 0 215 4.0 5.0 0.00 0.01 0.01 1056.6
20260509213754 0 245 2.0 5.0 0.00 0.01 0.01 1056.8
20260509213249 0 250 4.0 7.0 0.00 0.01 0.01 1056.8
20260509212747 0 140 2.0 5.0 0.00 0.01 0.01 1056.8
20260509212244 0 260 5.0 7.0 0.00 0.01 0.01 1057.1
20260509211734 0 270 5.0 8.0 0.00 0.01 0.01 1056.9
20260509211231 0 286 5.0 7.0 0.00 0.01 0.01 1057.1
20260509210727 0 141 0.0 5.0 0.00 0.01 0.01 1057.0
20260509210225 0 331 4.0 6.0 0.00 0.01 0.01 1056.9
20260509205725 0 95 3.0 7.0 0.00 0.01 0.01 1057.3
20260509205224 0 155 1.0 3.0 0.00 0.01 0.01 1057.3
20260509204721 0 266 6.0 9.0 0.00 0.01 0.01 1057.2
20260509204217 0 177 2.0 2.0 0.00 0.01 0.01 1057.1
20260509203713 0 203 3.0 3.0 0.00 0.01 0.01 1057.1
20260509203211 0 136 2.0 5.0 0.00 0.01 0.01 1057.4
20260509202706 0 205 4.0 6.0 0.00 0.01 0.01 1057.4
20260509202202 0 274 3.0 8.0 0.00 0.01 0.01 1057.5
20260509201657 0 194 2.0 7.0 0.00 0.01 0.01 1057.6
20260509201154 0 295 2.0 7.0 0.00 0.01 0.01 1057.6
20260509200651 0 172 4.0 6.0 0.00 0.01 0.01 1057.4
20260509200146 0 91 2.0 8.0 0.00 0.01 0.01 1057.6
20260509195642 0 298 3.0 6.0 0.00 0.01 0.01 1057.5
20260509195137 0 289 3.0 6.0 0.00 0.01 0.01 1057.7
20260509194636 0 252 3.0 5.0 0.00 0.01 0.01 1057.6
20260509194134 0 70 2.0 5.0 0.00 0.01 0.01 1057.5
20260509193630 0 112 3.0 9.0 0.00 0.01 0.01 1057.6
20260509193125 0 236 4.0 7.0 0.00 0.01 0.01 1057.5
20260509192623 0 295 3.0 8.0 0.00 0.01 0.01 1057.7
20260509192117 0 178 3.0 5.0 0.00 0.01 0.01 1057.6
20260509191612 0 235 2.0 7.0 0.00 0.01 0.01 1057.5
20260509191108 0 306 2.0 6.0 0.00 0.01 0.01 1057.6
20260509190605 0 299 3.0 5.0 0.00 0.01 0.01 1057.5
20260509185600 0 145 2.0 6.0 0.00 0.01 0.01 1057.7
20260509185056 0 108 3.0 3.0 0.00 0.01 0.01 1057.5
20260509184555 0 162 1.0 8.0 0.00 0.01 0.01 1057.7
20260509184051 0 232 5.0 6.0 0.00 0.01 0.01 1057.7
20260509183546 0 242 3.0 7.0 0.00 0.01 0.01 1057.6
20260509183042 0 214 4.0 5.0 0.00 0.01 0.01 1057.5
20260509182539 0 250 5.0 11.0 0.00 0.01 0.01 1058.0
20260509182036 0 94 4.0 6.0 0.00 0.01 0.01 1057.7
20260509181534 0 258 3.0 8.0 0.00 0.01 0.01 1057.7
20260509181031 0 288 5.0 6.0 0.00 0.01 0.01 1058.2
20260509180526 0 239 5.0 8.0 0.00 0.01 0.01 1058.1
20260509180019 0 251 4.0 7.0 0.00 0.01 0.01 1058.2
20260509175514 0 228 3.0 8.0 0.00 0.01 0.01 1058.1
20260509175011 0 181 4.0 5.0 0.00 0.01 0.01 1058.3
20260509174508 0 152 4.0 8.0 0.00 0.01 0.01 1058.1
20260509174003 0 193 2.0 3.0 0.00 0.01 0.01 1058.0
20260509173457 0 178 2.0 5.0 0.00 0.01 0.01 1058.1
20260509172954 0 212 5.0 6.0 0.00 0.01 0.01 1058.1
20260509172451 0 292 3.0 5.0 0.00 0.01 0.01 1058.1